METAR UND TAF INFORMATION
ESOK 190150Z AUTO 21003KT 9999 BKN082/// 11/11 Q1001

 FLUGHAFENKARTE

 RUNWAY INFORMATION
Runway 03 Runway length 8255 ft Runway width 148 ft
Runway elevation 332 ft Runway displaced threshold 0 ft Runway heading 26
Runway 21 Runway length 8255 ft Runway width 148 ft
Runway elevation 352 ft Runway displaced threshold 0 ft Runway heading 206
Runway 03L Runway length 1840 ft Runway width 170 ft
Runway elevation 0 ft Runway displaced threshold 0 ft Runway heading 26
Runway 21R Runway length 1840 ft Runway width 170 ft
Runway elevation 0 ft Runway displaced threshold 0 ft Runway heading 206

 AIRPORT FREQUENCIES
Type TWR Name TWR Frequency 119.45 MHZ

 AIRPORT NEAR NAVIGATION AIDS
Type VOR-DME Name Karlstad Frequency 117800 KHZ